Probability
0 0 0 0 0 0 0 0 0 0 0 0 0 0 0 0 0 0 0 0 0 0 0 0 0 0 0 0 0 0 0 0 0 0 0 0 0 0 0 0 0 0 0 0
0 0 0 0 0 0 0 0 0 0 0 0 0 0 0 0 0 0 0 0 0 0 0 0 0 0 0 0 0 0 0 0 0 0 0 0 0 0 0 0 0 0 0 0
0 0 0 0 0 0 0 0 0 0 0 0 0 0 0 0 0 0 0 0 0 0 0 0 0 0 0 0 0 0 3 0 0 0 0 0 0 0 0 0 0 0 0 0
0 0 0 0 0 0 0 0 0 0 0 0 0 0 0 0 0 0 0 0 0 0 0 0 0 0 0 0 0 0 0 0 0 0 0 0 0 0 0 0 0 0 0 0
0 0 0 0 0 0 0 0 0 0 0 0 0 0 0 0 0 0 0 0 0 0 0 0 0 0 0 0 0 0 0 0 0 0 0 0 0 0 0 0 0 0 0 0
0 0 0 0 0 0 0 0 0 0 0 0 0 0 0 0 0 0 0 0 0 0 0 0 0 0 0 0 0 0 0 0 0 0 0 0 0 0 0 0 0 0 0 0
0 0 0 0 0 0 0 0 0 0 0 0 0 0 0 0 0 0 0 0 0 0 0 0 0 0 0 0 0 0 0 0 0 0 0 0 0 0 0 0 0 0 0 0
0 0 0 0 0 0 0 0 0 0 0 0 0 0 0 0 0 0 0 0 0 0 0 0 0 0 0 0 0 0 0 0 0 0 0 0 0 0 0 0 0 0 0 0
0 0 0 0 0 0 0 0 0 0 0 0 0 0 0 0 0 0 0 0 0 0 0 0 0 0 0 0 0 0 0 0 0 0 0 0 0 0 0 0 0 0 0 0
0 0 0 0 0 0 0 0 0 0 0 0 0 0 0 0 0 0 0 0 0 0 0 0 0 0 0 0 0 0 0 0 0 0 0 0 0 0 0 0 0 0 0 0
0 0 0 0 0 0 0 0 0 0 0 0 0 0 0 0 0 0 0 0 0 0 0 0 0 0 0 0 0 0 0 0 0 0 0 0 0 0 0 0 0 0 0 0
0 0 0 0 0 0 0 0 0 0 0 0 0 0 0 0 0 0 0 0 0 0 0 0 0 0 0 0 0 0 0 0 0 0 0 0 0 0 0 0 0 0 0 0
0 0 0 0 0 0 0 0 0 0 0 0 0 0 0 0 0 0 0 0 0 0 0 0 0 0 0 0 0 0 0 0 0 0 0 0 0 0 0 0 0 0 0 0
0 0 0 0 0 0 0 0 0 0 0 0 0 0 0 0 0 0 0 0 0 0 0 0 0 0 0 0 0 0 0 0 0 0 0 0 0 0 0 0 0 0 0 0
0 0 0 0 0 0 0 0 0 0 0 0 0 0 0 0 0 0 0 0 0 0 0 0 0 0 0 0 0 0 0 0 0 0 0 0 0 0 0 0 0 0 0 0
0 0 0 0 0 0 0 0 0 0 0 0 0 0 0 0 0 0 0 0 0 0 0 0 0 0 0 0 0 0 0 0 0 0 0 0 0 0 0 0 0 0 0 0
0 0 0 0 0 0 0 0 0 0 0 0 0 0 0 0 0 0 0 0 0 0 0 0 0 0 0 0 0 0 0 0 0 0 0 0 0 0 0 0 0 0 0 0
0 0 0 0 0 0 0 0 0 0 0 0 0 0 0 0 0 0 0 0 0 0 0 0 0 0 0 0 0 0 0 0 0 0 0 0 0 0 0 0 0 0 0 0
0 0 0 0 0 0 0 0 0 0 0 0 0 0 0 0 0 0 0 0 0 0 0 0 0 0 0 0 0 0 0 0 0 0 0 0 0 0 0 0 0 0 0 0
0 0 0 0 0 0 0 0 0 0 0 0 0 0 0 0 0 0 0 0 0 0 0 0 0 0 0 0 0 0 0 0 0 0 0 0 0 0 0 0 0 0 0 0
0 0 0 0 0 0 0 0 0 0 0 0 0 0 0 0 0 0 0 0 0 0 0 0 0 0 0 0 0 0 0 0 0 0 0 0 0 0 0 0 0 0 0 0
0 0 0 0 0 0 0 0 0 0 0 0 0 0 0 0 0 0 0 0 0 0 0 0 0 0 0 0 0 0 0 0 0 0 0 0 0 0 0 0 0 0 0 0
0 0 0 0 0 0 0 0 0 0 0 0 0 0 0 0 0 0 0 0 0 0 0 0 0 0 0 0 0 0 0 0 0 0 0 0 0 0 0 0 0 0 0 0
0 0 0 0 0 0 0 0 0 0 0 0 0 0 0 0 0 0 0 0 0 0 0 0 0 0 0 0 0 0 0 0 0 0 0 0 0 0 0 0 0 0 0 0
0 0 0 0 0 0 0 0 0 0 0 0 0 0 0 0 0 0 0 0 0 0 0 0 0 0 0 0 0 0 0 0 0 0 0 0 0 0 0 0 0 0 0 0
0 0 0 0 0 0 0 0 0 0 0 0 0 0 0 0 0 0 0 0 0 0 0 0 0 0 0 0 0 0 0 0 0 0 0 0 0 0 0 0 0 0 0 0
Height
5698 5696 5693 5691 5688 5685 5683 5680 5679 5678 5675 5672 5672 5672 5673 5672 5672 5672 5672 5671 5672 5672 5673 5674 5675 5678 5680 5683 5686 5689 5692 5695 5697 5700 5703 5706 5709 5712 5715 5719 5722 5725 5727 5730
5692 5689 5687 5683 5680 5678 5675 5672 5671 5670 5667 5664 5663 5664 5665 5665 5664 5664 5663 5663 5663 5663 5664 5664 5665 5667 5670 5672 5674 5677 5680 5683 5686 5689 5692 5695 5698 5701 5704 5707 5711 5713 5716 5719
5685 5684 5679 5676 5673 5670 5668 5665 5663 5661 5659 5657 5655 5655 5658 5658 5656 5656 5655 5654 5654 5654 5654 5655 5656 5657 5659 5661 5663 5666 5668 5671 5674 5677 5680 5683 5686 5690 5693 5696 5699 5702 5704 5707
5678 5676 5672 5669 5666 5663 5661 5658 5655 5653 5650 5649 5649 5645 5650 5650 5649 5648 5647 5646 5645 5645 5645 5645 5646 5647 5649 5651 5653 5655 5657 5660 5663 5665 5668 5672 5675 5678 5682 5685 5687 5690 5693 5695
5672 5669 5666 5663 5660 5656 5653 5650 5648 5645 5643 5642 5641 5638 5641 5642 5641 5640 5639 5637 5636 5636 5636 5636 5636 5637 5639 5640 5642 5644 5646 5649 5651 5654 5657 5660 5663 5667 5670 5672 5675 5678 5681 5683
5666 5663 5659 5656 5653 5649 5646 5643 5640 5638 5636 5634 5635 5631 5630 5632 5632 5631 5630 5629 5628 5628 5627 5627 5627 5628 5629 5630 5632 5634 5636 5638 5641 5643 5645 5649 5652 5655 5658 5661 5663 5666 5669 5671
5659 5656 5652 5649 5645 5642 5639 5636 5633 5629 5627 5627 5627 5623 5624 5624 5623 5622 5622 5621 5619 5619 5618 5618 5618 5618 5619 5621 5622 5624 5626 5628 5630 5632 5634 5637 5640 5643 5646 5648 5651 5654 5656 5659
5650 5648 5645 5641 5638 5635 5633 5630 5627 5623 5620 5620 5619 5617 5618 5616 5615 5614 5613 5612 5611 5610 5610 5609 5609 5609 5610 5611 5612 5613 5614 5617 5619 5621 5623 5625 5627 5630 5633 5636 5638 5641 5643 5646
5642 5641 5638 5635 5631 5629 5625 5623 5621 5617 5613 5612 5611 5611 5611 5609 5607 5606 5605 5604 5602 5602 5601 5600 5600 5600 5600 5601 5601 5602 5604 5605 5607 5609 5611 5614 5616 5618 5620 5623 5625 5627 5630 5632
5635 5633 5631 5628 5625 5622 5619 5616 5614 5610 5606 5604 5604 5603 5603 5601 5599 5598 5597 5595 5594 5594 5593 5592 5591 5591 5591 5591 5591 5592 5593 5594 5595 5597 5599 5601 5603 5605 5608 5610 5612 5614 5616 5618
5629 5626 5624 5621 5618 5615 5613 5611 5607 5604 5601 5598 5595 5598 5597 5594 5592 5590 5589 5587 5586 5585 5584 5583 5582 5581 5581 5581 5581 5581 5581 5582 5583 5585 5586 5588 5590 5592 5594 5596 5598 5600 5602 5604
5622 5619 5616 5614 5612 5609 5606 5604 5601 5598 5595 5591 5588 5591 5589 5587 5584 5582 5581 5580 5578 5577 5575 5574 5573 5572 5572 5571 5571 5570 5571 5571 5572 5573 5574 5576 5577 5579 5580 5582 5584 5585 5587 5589
5616 5613 5609 5607 5607 5603 5599 5597 5594 5591 5588 5584 5581 5584 5581 5579 5576 5574 5573 5571 5570 5568 5566 5565 5563 5563 5562 5561 5561 5560 5560 5560 5561 5562 5563 5564 5565 5566 5567 5569 5570 5571 5573 5575
5609 5606 5604 5601 5597 5594 5592 5591 5588 5584 5580 5577 5575 5574 5574 5570 5567 5566 5564 5562 5561 5559 5557 5556 5554 5553 5552 5551 5551 5550 5550 5550 5550 5550 5551 5552 5553 5554 5554 5555 5556 5558 5559 5561
5602 5599 5596 5594 5591 5588 5585 5583 5580 5577 5574 5570 5569 5566 5564 5561 5559 5557 5555 5553 5551 5550 5548 5546 5545 5543 5542 5541 5540 5540 5539 5539 5539 5539 5539 5540 5540 5541 5542 5542 5543 5544 5546 5547
5595 5592 5589 5587 5584 5580 5578 5576 5573 5569 5566 5563 5560 5558 5556 5552 5550 5548 5545 5543 5542 5540 5538 5536 5534 5533 5532 5530 5530 5529 5528 5528 5527 5527 5527 5527 5528 5528 5529 5529 5530 5531 5532 5534
5588 5584 5581 5579 5576 5573 5571 5569 5565 5562 5559 5555 5551 5550 5547 5544 5541 5539 5536 5534 5532 5530 5528 5526 5524 5523 5521 5520 5519 5518 5517 5516 5515 5515 5515 5516 5516 5516 5517 5517 5517 5518 5519 5521
5580 5576 5572 5569 5568 5564 5566 5561 5557 5553 5551 5547 5543 5541 5538 5535 5533 5530 5527 5525 5523 5521 5518 5516 5514 5512 5511 5509 5508 5507 5505 5504 5504 5503 5503 5504 5504 5504 5504 5504 5505 5505 5506 5508
5572 5568 5564 5561 5557 5555 5556 5552 5547 5544 5542 5539 5535 5532 5529 5526 5524 5522 5518 5515 5513 5511 5508 5506 5504 5502 5500 5498 5497 5496 5494 5493 5492 5492 5492 5491 5491 5491 5491 5492 5492 5492 5493 5494
5565 5561 5558 5553 5548 5546 5548 5543 5538 5536 5533 5531 5527 5523 5520 5517 5515 5514 5509 5506 5503 5500 5498 5495 5493 5491 5489 5487 5486 5484 5483 5481 5480 5480 5479 5478 5478 5478 5478 5479 5479 5479 5480 5481
5557 5553 5550 5545 5540 5538 5538 5534 5530 5528 5526 5521 5518 5514 5511 5508 5505 5503 5499 5496 5493 5490 5488 5485 5483 5481 5478 5476 5474 5473 5471 5470 5469 5468 5466 5465 5465 5465 5465 5466 5466 5467 5467 5468
5548 5544 5541 5537 5533 5533 5529 5524 5521 5518 5514 5511 5508 5504 5501 5498 5495 5492 5489 5486 5483 5480 5478 5475 5473 5470 5468 5465 5464 5462 5461 5459 5458 5456 5455 5453 5453 5452 5452 5453 5453 5453 5454 5455
5540 5537 5532 5530 5528 5523 5519 5515 5511 5508 5505 5501 5498 5495 5491 5488 5485 5483 5480 5477 5474 5471 5468 5465 5463 5460 5458 5455 5453 5451 5450 5448 5447 5446 5444 5442 5441 5440 5440 5440 5440 5441 5442 5443
5531 5527 5523 5520 5518 5514 5510 5506 5502 5498 5494 5491 5488 5484 5481 5478 5476 5473 5470 5467 5464 5461 5458 5455 5453 5450 5447 5445 5443 5441 5439 5438 5437 5435 5434 5432 5431 5429 5429 5428 5429 5429 5430 5430
5521 5516 5513 5510 5508 5504 5501 5497 5493 5489 5485 5482 5478 5474 5471 5468 5466 5463 5460 5458 5455 5451 5448 5445 5442 5440 5437 5435 5432 5430 5429 5428 5427 5425 5424 5422 5420 5419 5418 5418 5418 5418 5418 5418
5511 5507 5503 5501 5499 5494 5492 5488 5484 5479 5476 5472 5468 5465 5462 5458 5456 5453 5450 5447 5444 5441 5438 5435 5432 5429 5427 5424 5422 5420 5418 5417 5416 5415 5413 5412 5410 5409 5408 5407 5407 5406 5406 5406
Wind_Speed
26 27 28 28 29 29 30 30 30 30 31 31 31 31 30 31 32 33 33 33 35 35 37 38 39 41 43 44 45 45 46 46 46 47 47 47 46 46 46 46 45 45 45 45
27 27 28 29 29 30 30 31 31 31 31 31 31 30 30 30 31 32 31 32 33 35 36 37 38 40 43 44 45 46 47 47 47 48 48 48 47 47 47 47 47 46 46 46
28 28 29 30 30 31 31 32 31 31 31 31 32 31 29 30 30 31 31 32 32 34 35 36 37 39 42 43 44 45 46 46 47 48 48 48 48 47 47 48 48 47 47 48
29 29 29 30 30 31 31 31 31 31 31 31 31 32 29 29 30 30 31 32 32 33 35 36 37 38 40 42 43 44 45 45 46 47 48 48 48 48 48 48 49 48 48 49
28 29 29 30 30 31 31 31 31 31 31 32 32 34 31 30 31 31 32 33 33 33 34 35 36 37 39 40 41 43 44 45 46 47 48 49 49 49 48 49 49 49 49 49
29 29 29 30 30 30 30 31 31 31 30 31 30 33 31 29 30 30 30 32 32 32 33 34 35 36 38 39 40 41 43 44 46 47 48 49 49 49 50 49 49 50 50 49
29 29 29 29 29 30 30 30 31 30 30 30 29 31 31 31 30 30 30 30 32 32 33 34 34 35 37 38 40 41 43 44 45 46 47 48 48 49 50 50 51 51 51 50
31 30 29 28 28 29 29 29 29 30 30 29 29 29 28 30 31 31 30 30 31 32 32 32 33 34 35 37 38 40 41 43 45 46 47 47 47 49 50 50 51 51 51 51
31 30 29 29 28 28 28 27 28 29 31 30 28 28 27 28 29 29 30 30 31 30 30 31 33 34 35 36 38 39 41 42 44 46 47 47 47 48 49 50 51 52 52 52
31 30 29 29 28 27 27 27 27 28 30 32 30 29 28 27 27 27 28 29 29 29 30 31 33 34 35 36 38 39 40 41 43 44 46 47 47 47 48 49 50 52 53 53
31 31 30 29 28 27 26 26 27 28 29 31 32 30 28 28 28 28 28 28 28 28 29 30 32 34 35 35 36 37 39 41 42 43 44 46 47 49 49 49 49 51 52 53
31 31 30 29 28 27 27 27 28 29 30 32 33 31 29 30 30 30 30 30 30 30 30 31 32 33 34 35 36 36 37 39 41 42 43 44 45 47 49 49 50 51 51 52
31 32 31 30 29 29 29 29 29 30 31 32 33 32 31 32 32 32 32 31 31 32 32 33 34 34 34 34 34 35 36 38 39 41 43 43 44 45 47 48 48 49 49 49
32 31 31 30 30 30 29 29 29 31 32 33 33 32 31 31 32 32 33 33 33 34 34 34 35 35 35 35 35 35 36 37 38 40 42 42 44 45 46 46 47 48 48 48
32 32 31 30 30 30 30 30 30 32 33 35 33 32 31 32 32 33 33 33 34 35 35 35 36 36 36 36 36 37 37 37 38 40 41 41 43 43 44 45 46 47 48 48
32 33 33 32 31 32 32 31 32 33 33 34 34 33 31 32 33 34 34 34 35 35 36 36 37 36 36 36 36 37 38 39 39 39 39 40 41 42 42 44 45 46 47 47
34 34 34 34 32 33 32 31 32 33 34 34 34 33 32 32 33 34 34 34 35 35 36 36 36 36 36 36 36 37 38 39 40 39 39 39 41 42 42 43 44 45 47 47
34 34 35 35 34 34 33 33 33 34 34 34 34 33 32 33 33 33 34 34 35 35 36 36 36 36 36 36 37 37 38 39 39 39 39 40 42 42 43 43 44 45 46 48
34 34 35 36 36 35 33 33 35 35 33 33 33 33 33 34 34 33 34 35 35 36 35 35 35 36 36 36 37 37 38 38 39 39 40 41 41 42 43 43 43 44 44 45
35 34 35 36 36 36 34 34 35 36 34 34 34 33 34 35 35 34 34 34 35 35 35 35 35 35 36 37 37 37 37 37 38 39 40 41 41 41 41 41 42 43 43 43
35 35 35 35 36 36 34 35 35 36 36 36 36 35 35 35 35 35 35 35 35 35 35 35 35 35 36 36 36 36 36 36 37 37 38 39 39 39 40 40 41 42 42 42
36 37 36 35 36 35 34 35 35 36 36 36 36 36 36 35 34 34 35 34 34 34 34 34 34 34 35 35 35 35 34 34 34 34 35 36 37 38 38 39 39 40 41 41
37 37 36 36 35 35 35 35 36 36 36 36 37 37 37 36 35 35 35 34 34 34 34 34 34 34 34 35 35 34 34 33 33 33 34 34 35 36 36 37 39 40 40 41
37 38 37 36 35 36 36 35 36 36 36 36 36 36 37 36 35 35 35 35 35 35 35 35 35 35 34 34 35 35 34 34 33 33 33 32 32 33 34 35 36 37 39 40
38 38 38 37 36 36 36 36 36 37 37 37 36 36 36 36 35 36 36 36 35 36 36 35 35 35 34 35 35 35 35 34 34 34 33 33 32 32 33 34 35 37 38 39
38 38 38 37 37 37 36 36 37 37 37 36 37 36 36 36 36 36 36 36 36 36 35 35 35 34 34 35 35 35 35 34 34 34 34 33 33 33 34 34 35 36 37 38
Wind_Direction
300 296 294 294 293 292 289 287 285 284 283 280 276 273 270 269 268 266 267 264 258 259 256 254 253 252 250 249 248 248 247 248 248 248 248 248 248 249 249 249 250 250 250 249
302 299 298 295 294 293 290 288 286 284 283 280 277 273 270 269 269 267 267 267 261 259 259 258 256 253 251 250 250 249 248 247 248 248 248 249 249 249 249 250 249 250 250 249
304 303 300 297 295 293 291 290 289 287 284 280 278 274 270 269 270 269 268 269 265 262 261 260 258 255 253 252 251 250 249 248 248 248 248 248 249 249 249 250 250 251 251 250
304 303 301 297 296 296 294 292 289 287 285 283 282 279 273 271 270 271 270 270 269 266 265 261 258 255 254 253 252 251 250 248 248 248 248 248 249 249 249 250 251 252 253 252
306 304 302 299 298 296 295 294 291 288 286 285 283 281 279 276 274 273 271 270 269 268 267 264 261 258 255 253 253 252 251 249 248 248 248 248 249 249 250 251 251 252 253 253
306 305 303 302 300 297 295 294 291 289 287 286 286 283 283 281 278 276 272 271 269 269 268 265 263 259 257 255 254 253 251 250 249 249 249 250 250 250 251 251 251 252 253 253
306 305 304 303 300 297 295 294 293 291 289 289 289 286 286 284 281 278 275 273 271 270 269 266 264 260 259 257 256 254 253 252 251 250 251 251 252 251 252 252 251 252 252 253
307 307 306 305 302 300 297 295 293 292 292 291 289 288 290 287 284 281 278 275 274 272 269 266 264 261 260 259 258 256 254 254 253 252 252 253 253 253 253 253 252 252 252 253
307 306 306 305 304 302 300 296 294 291 291 292 290 289 289 288 286 284 281 278 276 274 273 269 266 264 263 262 261 259 256 255 254 253 253 254 255 254 254 254 253 252 253 253
306 303 304 303 301 300 299 299 296 293 291 290 290 291 293 291 289 287 283 281 279 278 279 275 271 270 267 265 264 261 259 257 256 256 255 254 255 255 255 255 254 253 253 254
306 304 303 301 299 298 297 297 295 293 292 293 293 292 293 293 291 289 286 283 281 280 279 277 274 273 270 269 267 264 261 260 259 257 256 256 256 256 256 257 257 255 254 254
305 305 304 301 299 297 297 297 295 295 294 292 292 294 292 292 292 290 287 286 285 283 281 280 277 275 274 273 270 268 265 263 261 259 258 258 257 257 257 258 258 258 256 255
305 305 304 303 301 298 297 297 297 295 295 295 294 294 294 292 291 290 289 288 286 284 283 282 279 277 275 274 273 270 268 266 264 262 260 260 259 258 258 258 258 258 257 254
304 305 303 302 303 301 298 296 296 296 296 297 297 296 293 292 291 289 288 288 287 285 284 282 279 277 276 275 274 272 270 268 266 265 263 262 260 260 259 258 257 256 255 254
302 302 302 300 299 298 296 296 296 296 297 298 299 298 295 292 292 291 288 287 285 284 284 283 280 279 278 276 275 273 272 270 269 267 265 263 262 262 260 259 258 256 255 254
301 301 300 298 296 296 296 296 295 296 298 298 297 297 296 294 292 291 289 287 284 283 284 283 280 279 278 277 275 274 273 272 271 268 265 264 264 263 262 262 260 257 256 255
300 300 300 300 297 295 295 296 296 296 297 297 296 296 294 295 292 290 289 287 285 283 284 283 280 279 278 277 275 274 274 273 270 267 265 264 264 264 264 263 262 259 257 256
302 301 299 299 298 295 297 297 297 298 298 297 296 296 295 295 294 292 290 287 286 285 284 282 281 280 279 278 278 276 276 273 270 267 266 266 264 264 264 264 263 262 260 257
302 301 300 299 298 297 297 297 298 299 299 298 297 296 294 294 294 292 290 288 286 286 285 283 281 281 281 280 280 279 277 274 271 269 267 266 266 265 264 263 263 262 260 258
302 301 300 300 299 299 299 297 297 298 299 299 297 295 294 294 293 291 289 288 288 287 286 284 283 283 282 281 281 280 278 276 274 273 271 269 267 266 265 263 262 262 261 259
302 300 300 301 300 300 301 300 299 298 299 298 296 295 295 295 293 290 289 289 289 288 287 286 285 285 283 282 281 281 279 277 276 276 274 271 269 267 265 264 263 262 261 260
301 300 300 301 301 302 302 300 299 298 298 298 297 296 295 294 293 291 290 290 290 290 288 287 287 286 285 283 282 280 278 277 277 277 276 273 270 268 266 265 264 263 262 261
299 299 299 299 301 302 302 301 299 298 298 297 297 297 295 293 293 292 291 291 291 290 289 288 289 288 287 284 282 281 278 277 277 277 276 275 273 271 269 266 265 264 263 261
297 297 296 296 298 299 300 300 300 300 298 297 297 297 296 293 292 291 292 292 291 291 290 289 289 289 288 286 283 281 279 278 277 277 276 275 273 271 269 267 266 265 265 263
296 296 295 295 298 298 299 300 300 299 298 297 297 296 295 293 293 293 293 294 293 293 292 290 289 289 288 287 284 281 280 279 278 277 276 275 275 273 271 268 266 266 266 265
293 293 294 295 296 297 298 299 299 299 298 298 297 296 294 293 293 293 294 294 294 294 293 292 290 289 288 287 286 283 281 279 279 278 276 275 275 274 272 271 269 269 269 268